Terminal Aerodrome Forecast
Issued by NWS

Home | Current Version | Previous Version | Text Only | Print | Product List | Glossary Off
Versions: 1 2 3 4 5 6 7 8 9 10 11 12 13 14 15 16 17 18 19 20 21 22 23 24 25 26 27 28 29 30 31 32 33 34 35 36 37 38 39 40 41 42 43 44 45 46 47 48 49 50

000
FTUS43 KLOT 201356 AAA
TAFGYY
TAF AMD
KGYY 201356Z 2014/2112 05012KT P6SM SCT060 BKN100
     FM201900 01010KT P6SM VCSH BKN050 OVC070
      TEMPO 2019/2023 -SHRA BKN050
     FM210200 VRB03KT P6SM BKN060=

USA.gov is the U.S. government's official web portal to all federal, state and local government web resources and services.